This is the latest recevied weather packets stored in our database for station/object WC0AA. If no packets are shown the sender has not sent any weather packets the latest 10 day(s).
| Time | Temp. | Humidity | Pressure | Rain* | Wind** | Luminosity | Snow |
|---|---|---|---|---|---|---|---|
| 1778383805 | 17.78° C | 56% | 1013.5 hPa | 0 mm | - | - | - |
| 1778383204 | 17.78° C | 55% | 1013.3 hPa | 0 mm | - | - | - |
| 1778381404 | 18.33° C | 53% | 1013 hPa | 0 mm | - | - | - |
| 1778377804 | 19.44° C | 50% | 1011.4 hPa | 0 mm | - | - | - |
| 1778375405 | 20° C | 47% | 1010.9 hPa | 0 mm | - | - | - |
| 1778374804 | 20.56° C | 47% | 1010.6 hPa | 0 mm | - | - | - |
| 1778373604 | 20.56° C | 47% | 1010.3 hPa | 0 mm | - | - | - |
| 1778364004 | 25° C | 39% | 1009.3 hPa | 0 mm | - | - | - |
| 1778361605 | 26.67° C | 36% | 1008.8 hPa | 0 mm | - | - | - |
| 1778355604 | 28.33° C | 30% | 1008.2 hPa | 0 mm | - | - | - |
| 1778353805 | 30° C | 28% | 1008.1 hPa | 0 mm | - | - | - |
| 1778351405 | 30.56° C | 27% | 1008.1 hPa | 0 mm | - | - | - |
| 1778349004 | 28.89° C | 30% | 1008.4 hPa | 0 mm | - | - | - |
| 1778341804 | 25° C | 36% | 1008.9 hPa | 0 mm | - | - | - |
| 1778340004 | 23.33° C | 43% | 1009.1 hPa | 0 mm | - | - | - |
| 1778332804 | 15.56° C | 72% | 1009.3 hPa | 0 mm | - | - | - |
| 1778328004 | 10° C | 88% | 1008.7 hPa | 0 mm | - | - | - |
| 1778326204 | 8.33° C | 93% | 1008.4 hPa | 0 mm | - | - | - |
| 1778324404 | 8.33° C | 93% | 1008.3 hPa | 0 mm | - | - | - |
| 1778323805 | 8.33° C | 93% | 1008.4 hPa | 0 mm | - | - | - |
| 1778321405 | 7.78° C | 93% | 1008.4 hPa | 0 mm | - | - | - |
| 1778319005 | 8.89° C | 88% | 1008.5 hPa | 0 mm | - | - | - |
| 1778316004 | 10.56° C | 82% | 1008.4 hPa | 0 mm | - | - | - |
| 1778313004 | 11.67° C | 80% | 1008.6 hPa | 0 mm | - | - | - |
| 1778308804 | 12.22° C | 76% | 1008.4 hPa | 0 mm | - | - | - |
* Rain latest hour (hover to see other rain measurements)
** Current wind speed in m/s (hover to see current wind gust speed)